TimeEST,TemperatureF,Dew PointF,Humidity,Sea Level PressureIn,VisibilityMPH,Wind Direction,Wind SpeedMPH,Gust SpeedMPH,PrecipitationIn,Events,Conditions,WindDirDegrees,DateUTC
12:53 AM,69.1,63.0,81,30.08,10.0,Calm,Calm,-,N/A,,Clear,0,2012-12-20 05:53:00
1:53 AM,66.0,62.1,87,30.07,10.0,Calm,Calm,-,N/A,,Clear,0,2012-12-20 06:53:00
2:53 AM,64.9,63.0,93,30.07,10.0,Calm,Calm,-,N/A,,Clear,0,2012-12-20 07:53:00
3:53 AM,66.0,63.0,90,30.06,10.0,Calm,Calm,-,N/A,,Scattered Clouds,0,2012-12-20 08:53:00
4:06 AM,66.2,62.6,88,30.06,10.0,Calm,Calm,-,N/A,,Mostly Cloudy,0,2012-12-20 09:06:00
4:43 AM,66.2,62.6,88,30.06,10.0,Calm,Calm,-,N/A,,Mostly Cloudy,0,2012-12-20 09:43:00
4:53 AM,66.9,63.0,87,30.06,-9999.0,North,-9999.0,-,N/A,,Unknown,0,2012-12-20 09:53:00
5:53 AM,64.9,63.0,93,30.06,10.0,Calm,Calm,-,N/A,,Clear,0,2012-12-20 10:53:00
6:53 AM,66.9,64.0,90,30.08,10.0,Calm,Calm,-,N/A,,Partly Cloudy,0,2012-12-20 11:53:00
7:53 AM,66.9,64.9,93,30.09,10.0,Calm,Calm,-,0.01,,Clear,0,2012-12-20 12:53:00
8:53 AM,75.9,64.0,67,30.09,10.0,SE,5.8,-,N/A,,Clear,130,2012-12-20 13:53:00
9:53 AM,78.1,63.0,60,30.10,10.0,SE,13.8,-,N/A,,Partly Cloudy,140,2012-12-20 14:53:00
10:53 AM,81.0,61.0,50,30.10,10.0,SE,9.2,-,N/A,,Scattered Clouds,130,2012-12-20 15:53:00
11:53 AM,81.0,59.0,47,30.09,10.0,SE,6.9,-,N/A,,Clear,130,2012-12-20 16:53:00
12:53 PM,82.0,57.0,42,30.05,10.0,Variable,6.9,-,N/A,,Clear,0,2012-12-20 17:53:00
1:53 PM,81.0,62.1,52,30.02,10.0,SSW,10.4,17.3,N/A,,Partly Cloudy,200,2012-12-20 18:53:00
2:53 PM,79.0,64.0,60,30.01,10.0,South,12.7,-,N/A,,Scattered Clouds,190,2012-12-20 19:53:00
3:53 PM,79.0,64.9,62,30.00,10.0,SSE,15.0,-,N/A,,Partly Cloudy,160,2012-12-20 20:53:00
4:53 PM,78.1,64.9,64,29.99,10.0,South,12.7,-,N/A,,Clear,180,2012-12-20 21:53:00
5:53 PM,75.9,64.9,69,30.01,10.0,South,10.4,-,N/A,,Partly Cloudy,170,2012-12-20 22:53:00
6:53 PM,73.0,64.9,76,30.04,10.0,South,6.9,-,N/A,,Clear,180,2012-12-20 23:53:00
7:53 PM,73.0,66.0,79,30.02,10.0,South,5.8,-,N/A,,Clear,180,2012-12-21 00:53:00
8:53 PM,72.0,66.0,81,30.04,10.0,Calm,Calm,-,N/A,,Clear,0,2012-12-21 01:53:00
9:53 PM,70.0,64.9,84,30.04,10.0,SSW,3.5,-,N/A,,Clear,200,2012-12-21 02:53:00
10:53 PM,69.1,64.9,87,30.04,10.0,SSW,3.5,-,N/A,,Clear,200,2012-12-21 03:53:00
11:53 PM,69.1,64.9,87,30.04,10.0,SSW,3.5,-,N/A,,Clear,210,2012-12-21 04:53:00